Temp
7 7 8 7 7 8 8 8 8 8 7 7 7 7 7 7 7 7 6 8 8 8 8 8 8 7 7 7 6 6 6 5 5 4 4 4 3 3 2 2 2 2 2 2 2
8 8 8 8 8 8 8 8 8 8 8 8 8 7 7 7 7 7 8 8 8 8 8 8 7 7 7 7 6 6 6 5 4 4 4 3 3 3 3 3 2 2 2 2 2
8 9 9 8 8 8 8 8 8 8 8 8 8 7 8 8 7 8 8 8 8 8 8 7 7 7 7 6 6 6 5 5 4 4 3 3 3 3 3 2 2 2 2 2 2
9 9 9 9 9 9 9 8 8 8 8 8 8 8 8 8 8 7 8 8 8 8 8 8 7 7 7 7 6 6 5 5 4 3 3 3 3 3 3 3 2 2 2 2 1
9 9 9 9 9 9 9 9 9 9 8 8 8 8 8 7 7 8 8 8 8 8 8 8 7 7 7 6 6 5 5 4 4 4 3 3 3 3 3 2 2 2 2 1 1
9 9 9 9 9 9 9 9 9 8 8 8 8 8 8 8 8 8 8 8 8 8 8 7 7 7 6 6 5 5 4 4 4 4 4 3 3 3 3 2 2 2 1 1 1
9 9 9 9 9 9 9 8 8 8 8 8 8 8 7 8 8 8 8 8 8 7 7 7 7 7 6 6 5 5 4 4 4 4 4 4 3 3 3 3 3 2 2 1 2
9 9 9 9 9 8 8 8 8 8 8 8 8 8 8 8 8 8 8 8 8 7 7 7 7 6 6 6 5 5 5 4 4 4 4 3 3 3 3 3 3 3 2 2 2
9 9 9 9 9 9 8 8 8 8 8 8 8 8 8 8 8 8 8 8 8 7 7 7 6 6 6 6 5 5 4 4 4 4 4 3 4 3 3 3 3 3 3 3 2
9 9 9 9 9 9 9 9 8 9 9 9 8 8 8 8 8 8 8 8 8 7 7 6 6 6 5 5 4 4 3 4 3 4 4 4 4 3 4 4 3 3 3 3 3
9 9 9 9 9 9 9 9 9 8 9 8 8 8 8 8 8 8 8 8 8 7 7 7 6 6 6 5 4 4 4 3 3 3 3 3 5 4 4 3 3 3 3 3 2
9 9 9 9 9 10 10 9 9 9 8 8 8 8 8 8 8 8 8 8 7 7 7 7 6 5 5 4 4 4 4 3 3 2 2 4 5 5 4 3 3 3 3 3 2
9 9 9 9 9 9 9 9 9 8 8 8 8 8 8 8 8 8 8 8 7 7 7 7 6 5 5 4 4 4 4 3 2 3 3 3 5 4 4 3 3 3 2 2 2
8 8 8 9 9 9 9 9 9 8 8 8 8 8 8 8 8 8 8 7 7 7 7 6 6 5 5 4 3 4 3 3 3 2 2 2 2 4 3 3 3 2 2 2 1
7 8 8 8 8 9 9 9 8 8 6 8 8 8 8 8 7 7 7 7 7 6 6 6 5 5 4 4 3 3 2 3 2 1 0 1 1 5 4 3 2 2 2 1 1
7 7 7 8 8 8 8 8 8 7 7 8 8 8 7 7 7 7 7 7 7 7 6 6 5 5 4 3 3 2 2 3 2 1 -2 1 1 4 3 3 2 2 1 1 1
7 7 7 7 7 7 7 7 7 7 8 7 8 7 7 7 7 7 7 6 6 6 6 5 5 5 4 3 3 2 2 2 -1 -2 -1 0 -0 3 3 2 2 2 1 1 1
7 7 7 7 7 7 7 7 7 7 8 7 7 7 7 7 7 7 6 6 6 5 5 5 5 4 4 3 2 2 1 1 -1 -3 -3 0 -0 3 3 2 1 1 1 0 -0
7 6 6 7 7 7 7 7 7 7 7 7 7 7 7 6 6 6 6 6 5 5 4 3 4 4 3 3 2 1 0 -0 -1 -2 -4 -1 1 3 3 2 2 1 0 -1 -1
6 6 6 6 6 6 6 6 7 7 7 7 6 6 6 6 5 5 5 5 4 4 3 3 2 4 3 2 2 1 -0 -1 -1 -2 -3 -2 -0 2 2 2 1 0 -1 -1 -1
6 6 6 6 6 6 6 6 6 6 6 6 6 6 6 5 5 4 5 5 4 4 3 2 1 3 2 2 1 -0 -1 -1 -1 -1 -4 -5 -1 2 2 1 -0 -0 -1 -1 -2
5 5 5 6 5 5 5 6 6 6 5 5 5 5 5 5 4 4 4 4 4 3 2 1 1 0 2 2 1 -0 0 -0 -2 -1 -2 -4 -2 -0 -0 0 0 -0 -1 -1 -2
4 4 5 5 5 5 5 5 5 5 5 5 5 5 4 4 3 3 4 4 3 2 2 1 -0 -0 1 1 1 0 -0 -0 -1 -2 -2 -3 -1 -0 -0 -0 -1 -1 -2 -3 -3
3 3 4 4 4 4 4 4 4 4 4 4 4 4 4 3 3 3 3 3 2 2 1 0 -1 1 0 1 1 -1 -1 -2 -2 -4 -3 -2 -1 -1 -2 -2 -2 -3 -3 -3 -4
2 2 2 3 3 3 3 3 4 3 3 3 3 3 3 2 3 2 2 1 1 1 -1 -1 -1 -0 0 0 -0 -0 -1 -1 -3 -1 -4 0 -1 2 -2 -3 -3 -3 -3 -4 -3
1 1 1 1 2 2 2 3 3 2 2 2 2 2 2 2 2 -1 -1 -1 -0 -0 -1 -1 -1 -1 0 0 -1 -1 -1 0 0 -1 -3 -1 -1 1 -1 -1 -2 -3 -3 -4 -4
0 1 0 1 1 1 2 2 2 2 1 1 1 0 -0 -0 -1 -1 -1 -1 -1 -1 -1 -2 -2 -3 -2 -1 -2 -2 1 1 1 1 1 -0 1 -1 -1 -1 -2 -4 -4 -5 -5
Height
3157 3155 3154 3153 3153 3153 3154 3154 3154 3155 3155 3154 3154 3153 3151 3150 3147 3145 3144 3144 3141 3139 3137 3135 3135 3134 3133 3133 3133 3133 3133 3132 3132 3133 3134 3133 3133 3131 3130 3130 3130 3130 3130 3129 3128
3157 3155 3154 3154 3154 3154 3154 3155 3156 3156 3156 3155 3155 3153 3152 3151 3149 3147 3147 3144 3142 3140 3138 3137 3135 3134 3134 3134 3133 3133 3133 3133 3133 3133 3133 3131 3130 3129 3129 3128 3127 3127 3126 3126 3126
3158 3156 3155 3155 3155 3155 3156 3157 3158 3157 3157 3157 3156 3155 3153 3151 3151 3149 3147 3145 3143 3140 3139 3138 3137 3135 3134 3134 3133 3132 3133 3132 3132 3132 3131 3130 3128 3128 3127 3126 3126 3125 3125 3124 3124
3161 3160 3158 3158 3158 3158 3159 3159 3159 3159 3159 3158 3157 3156 3155 3153 3154 3150 3148 3146 3145 3142 3141 3139 3138 3136 3135 3134 3133 3133 3133 3132 3132 3131 3130 3129 3128 3126 3125 3124 3123 3122 3122 3122 3122
3165 3164 3162 3162 3161 3162 3161 3161 3161 3161 3160 3159 3159 3157 3156 3155 3154 3151 3149 3148 3146 3144 3142 3140 3138 3137 3136 3135 3135 3134 3133 3132 3131 3130 3129 3127 3126 3124 3123 3122 3120 3120 3120 3119 3118
3170 3168 3167 3166 3165 3164 3164 3163 3163 3162 3162 3161 3160 3159 3157 3157 3154 3152 3150 3149 3147 3145 3144 3142 3140 3138 3137 3136 3135 3134 3132 3131 3130 3129 3127 3126 3123 3122 3122 3120 3118 3117 3117 3116 3116
3173 3171 3170 3168 3168 3167 3166 3166 3165 3164 3163 3162 3161 3160 3158 3158 3155 3154 3152 3150 3148 3147 3145 3143 3141 3140 3138 3137 3136 3134 3133 3131 3130 3128 3126 3124 3123 3121 3119 3117 3116 3116 3115 3114 3113
3176 3174 3173 3171 3170 3169 3168 3167 3167 3166 3165 3164 3162 3161 3160 3158 3156 3154 3153 3151 3149 3148 3146 3144 3143 3141 3140 3139 3137 3134 3134 3131 3130 3128 3126 3123 3120 3118 3117 3116 3115 3114 3113 3112 3111
3178 3177 3175 3173 3172 3170 3170 3169 3168 3167 3165 3164 3163 3162 3161 3159 3156 3154 3153 3151 3150 3149 3147 3145 3144 3143 3141 3139 3138 3136 3133 3130 3128 3125 3122 3121 3118 3116 3115 3114 3113 3111 3110 3110 3109
3180 3178 3176 3175 3173 3172 3170 3169 3168 3167 3166 3164 3163 3164 3162 3160 3157 3155 3153 3152 3150 3149 3148 3146 3145 3143 3141 3139 3138 3135 3132 3130 3127 3125 3121 3117 3115 3113 3111 3111 3110 3109 3108 3108 3107
3181 3179 3178 3176 3174 3172 3171 3170 3171 3170 3166 3165 3164 3162 3161 3160 3158 3155 3153 3152 3150 3149 3147 3146 3146 3143 3141 3139 3137 3135 3132 3128 3125 3122 3118 3113 3111 3110 3108 3108 3108 3107 3106 3105 3105
3181 3179 3178 3177 3175 3173 3171 3170 3168 3169 3167 3165 3163 3162 3160 3159 3158 3155 3154 3153 3151 3149 3147 3147 3144 3142 3140 3139 3137 3134 3131 3127 3123 3120 3116 3110 3107 3105 3105 3106 3106 3105 3104 3102 3101
3181 3179 3178 3176 3175 3173 3171 3170 3168 3167 3167 3165 3163 3162 3161 3160 3158 3156 3155 3152 3150 3149 3147 3145 3144 3141 3140 3138 3136 3133 3129 3125 3121 3115 3111 3107 3103 3102 3103 3103 3102 3102 3101 3100 3099
3180 3179 3177 3176 3176 3173 3171 3169 3167 3166 3166 3166 3163 3162 3161 3158 3158 3156 3154 3154 3151 3149 3146 3145 3142 3140 3138 3136 3134 3130 3128 3123 3118 3115 3113 3110 3104 3099 3099 3100 3100 3100 3099 3099 3098
3179 3178 3177 3175 3174 3172 3171 3168 3167 3167 3167 3165 3162 3161 3159 3159 3158 3155 3154 3152 3150 3148 3148 3145 3142 3140 3138 3135 3131 3129 3125 3120 3115 3112 3111 3108 3109 3096 3096 3097 3097 3097 3097 3096 3096
3179 3177 3176 3175 3173 3172 3169 3168 3168 3169 3162 3162 3161 3159 3158 3157 3155 3154 3153 3151 3149 3147 3145 3143 3140 3139 3136 3133 3130 3127 3122 3115 3112 3111 3111 3108 3108 3094 3094 3094 3095 3095 3093 3093 3093
3178 3176 3175 3174 3173 3171 3169 3168 3169 3165 3164 3162 3159 3158 3157 3156 3155 3153 3152 3150 3149 3147 3144 3141 3139 3137 3134 3132 3129 3126 3122 3117 3116 3112 3109 3105 3104 3091 3090 3090 3090 3090 3090 3089 3088
3177 3175 3174 3173 3171 3170 3169 3169 3167 3163 3162 3160 3159 3157 3156 3155 3153 3152 3150 3148 3147 3145 3143 3140 3137 3135 3133 3131 3129 3125 3124 3125 3123 3118 3107 3103 3095 3088 3086 3087 3088 3087 3087 3087 3085
3174 3173 3172 3171 3170 3169 3169 3166 3164 3162 3161 3160 3158 3156 3155 3154 3153 3150 3147 3146 3145 3143 3144 3140 3136 3133 3131 3129 3129 3124 3123 3123 3120 3114 3111 3095 3090 3087 3084 3083 3083 3083 3083 3082 3080
3173 3171 3170 3169 3168 3167 3166 3165 3162 3161 3160 3158 3157 3155 3153 3152 3151 3149 3146 3144 3143 3141 3140 3138 3134 3129 3128 3127 3125 3124 3123 3122 3120 3117 3110 3091 3087 3082 3080 3079 3079 3080 3079 3078 3075
3170 3169 3168 3166 3165 3165 3163 3161 3159 3158 3158 3157 3155 3153 3152 3150 3149 3148 3145 3143 3140 3139 3138 3135 3133 3129 3126 3123 3119 3120 3120 3119 3118 3114 3110 3100 3080 3077 3076 3073 3073 3073 3072 3071 3070
3167 3166 3164 3163 3164 3161 3159 3158 3157 3155 3154 3153 3152 3149 3148 3147 3145 3144 3142 3140 3138 3136 3134 3132 3128 3122 3121 3117 3114 3114 3114 3113 3112 3107 3103 3097 3070 3071 3071 3070 3068 3068 3068 3066 3064
3162 3162 3161 3159 3157 3157 3155 3154 3152 3151 3150 3149 3147 3146 3145 3144 3143 3139 3137 3137 3135 3133 3129 3127 3122 3119 3114 3115 3110 3105 3105 3105 3104 3101 3091 3092 3069 3064 3064 3065 3064 3062 3060 3058 3056
3158 3157 3156 3154 3153 3152 3150 3149 3148 3146 3145 3144 3143 3142 3140 3140 3138 3133 3133 3132 3130 3128 3126 3122 3116 3116 3111 3108 3106 3098 3097 3096 3097 3092 3081 3073 3058 3060 3061 3061 3058 3055 3052 3049 3046
3152 3150 3150 3149 3149 3148 3147 3145 3144 3143 3141 3140 3138 3138 3137 3133 3130 3129 3129 3127 3125 3123 3120 3117 3108 3107 3097 3097 3096 3086 3085 3086 3083 3070 3074 3055 3054 3045 3054 3051 3050 3048 3045 3041 3038
3146 3145 3143 3142 3142 3142 3140 3139 3138 3137 3136 3134 3132 3133 3130 3126 3126 3123 3121 3120 3117 3114 3112 3107 3099 3096 3083 3086 3082 3073 3071 3068 3065 3058 3058 3050 3042 3046 3041 3039 3038 3039 3037 3033 3030
3137 3135 3134 3131 3132 3133 3132 3131 3130 3130 3128 3128 3127 3124 3122 3121 3117 3115 3113 3111 3110 3106 3104 3100 3094 3088 3079 3079 3075 3064 3055 3056 3053 3049 3047 3042 3038 3038 3033 3032 3031 3030 3029 3027 3024
Wind_Speed
9 6 4 4 5 6 7 6 6 6 6 6 6 7 5 11 13 14 10 10 10 9 9 9 8 8 4 2 1 1 1 1 1 1 4 6 8 9 10 10 10 10 11 11 10
13 10 6 5 6 7 8 8 8 7 6 6 8 9 7 5 10 10 8 8 9 9 8 8 9 7 4 3 2 1 1 0 0 1 3 6 8 9 9 8 7 8 8 9 10
18 17 12 9 9 9 10 9 8 8 7 7 7 10 10 4 7 9 8 8 8 8 8 8 8 6 5 6 4 4 3 1 1 1 5 6 8 9 8 6 7 7 8 10 11
19 18 16 13 12 12 11 10 9 9 8 8 8 8 9 10 5 8 8 8 8 8 8 8 7 6 7 7 7 6 5 3 2 4 4 6 8 9 7 5 7 9 10 10 10
18 17 16 15 14 12 11 10 9 8 8 8 8 8 8 9 7 8 8 8 8 8 10 9 8 7 8 7 8 8 6 3 3 5 7 8 9 7 8 7 7 8 8 10 12
17 16 14 13 12 11 11 10 8 7 6 7 8 8 9 8 9 8 8 8 9 10 9 10 9 7 7 7 8 4 8 3 5 6 9 11 10 7 8 8 9 10 11 11 12
16 15 13 12 10 9 9 9 8 5 3 4 6 8 11 9 8 8 8 8 8 8 9 9 10 9 8 5 8 3 9 5 9 8 10 11 5 8 8 9 8 8 8 10 9
14 15 14 11 9 7 6 5 5 8 4 2 4 6 8 8 8 8 7 7 8 7 10 8 10 10 7 6 8 11 8 10 11 9 12 12 6 8 9 8 6 7 8 7 8
12 13 13 14 11 8 5 3 2 4 4 7 4 6 6 9 9 8 7 7 8 7 8 10 8 9 9 8 7 9 10 15 12 10 17 12 8 9 8 5 5 6 6 6 5
11 12 12 13 12 10 7 4 1 3 6 4 7 3 5 8 8 8 8 7 9 7 7 9 9 9 10 11 8 14 16 16 21 9 18 14 6 9 7 5 5 5 5 4 4
9 10 10 10 11 11 9 5 3 1 3 5 6 6 4 9 9 9 7 6 9 7 7 6 10 9 10 15 13 15 17 19 21 11 24 18 12 11 11 7 4 3 3 3 3
9 9 9 8 9 10 9 7 3 3 2 5 5 6 6 4 9 10 8 6 8 8 7 7 10 12 10 13 13 16 16 21 14 23 26 15 15 9 10 9 5 2 1 0 1
10 9 9 9 9 9 8 7 5 5 6 5 6 6 7 4 7 8 7 6 8 8 10 5 10 11 13 12 13 17 13 23 26 30 22 13 12 9 11 11 9 5 2 1 2
10 10 10 9 9 9 9 8 5 5 6 5 6 5 5 5 3 8 8 8 8 7 10 5 9 9 15 13 15 18 20 23 26 25 7 11 7 11 14 13 10 8 4 1 3
11 10 10 10 9 10 9 8 6 4 3 4 4 6 5 5 5 8 10 8 9 9 9 8 7 8 14 14 17 14 23 23 24 13 13 7 7 6 14 16 12 10 8 5 5
13 12 11 11 10 9 8 7 6 4 5 3 5 7 6 6 7 8 10 8 10 10 9 8 9 8 14 14 18 20 22 21 11 8 3 3 4 10 12 15 12 11 10 7 8
14 13 13 12 11 10 9 8 6 5 5 4 6 8 8 8 8 8 10 9 8 9 12 10 9 9 12 15 16 25 19 7 4 2 4 4 10 16 8 12 13 12 12 11 12
13 12 13 13 12 11 10 9 5 6 9 11 9 9 9 9 10 9 12 12 9 9 13 10 7 9 13 15 14 17 10 2 5 3 6 21 9 4 8 18 15 15 15 14 12
14 13 12 12 12 11 11 8 6 9 8 10 12 12 9 8 10 12 12 14 7 9 7 7 8 19 15 14 16 11 6 8 7 10 5 7 10 15 17 16 20 18 16 14 14
14 14 15 15 13 13 13 13 14 14 14 13 10 8 9 11 11 9 11 8 9 9 13 10 14 14 10 19 19 11 12 5 4 4 6 7 12 18 16 18 14 17 18 19 21
15 16 16 15 15 16 17 17 17 16 15 12 12 12 15 14 15 14 9 13 13 10 18 18 11 12 23 20 20 14 12 7 7 7 4 4 9 10 16 13 17 22 24 27 27
20 18 17 18 20 20 19 19 18 17 16 16 17 17 17 16 17 17 18 14 16 16 20 17 11 22 26 17 20 16 15 17 10 7 12 7 30 34 23 21 15 14 20 25 28
22 22 20 18 19 19 20 19 19 20 19 20 17 16 17 18 16 10 16 19 17 18 13 20 9 15 11 10 12 17 16 20 22 26 32 12 19 20 17 17 23 29 33 40 42
25 23 26 24 21 22 23 23 24 24 22 19 21 22 22 21 22 18 18 20 20 24 21 24 24 29 25 33 35 35 30 30 26 22 34 41 57 50 42 40 39 42 43 41 40
23 23 22 20 24 24 23 21 20 18 19 21 26 25 22 24 26 26 23 22 22 24 27 25 33 35 44 43 43 48 44 41 42 51 36 55 54 51 44 43 44 45 41 36 31
27 31 35 34 31 30 28 31 29 27 27 27 27 23 24 27 26 26 23 26 31 30 31 33 39 40 51 47 43 42 43 46 45 44 49 51 52 34 36 34 26 29 30 27 28
36 39 38 42 41 37 34 33 30 28 27 25 21 23 25 25 27 30 30 31 33 36 36 36 38 30 38 39 36 35 37 25 30 32 31 35 40 28 33 30 28 29 27 28 30
Wind_Direction
28 27 37 63 73 98 123 126 105 91 77 66 51 37 30 31 23 22 8 4 16 24 24 20 31 28 23 42 89 117 336 132 47 324 313 309 307 304 298 291 284 280 280 283 288
40 41 53 78 85 92 108 116 108 97 85 71 54 38 23 22 25 19 11 15 17 23 25 26 23 29 41 70 70 42 81 144 325 318 317 309 309 311 314 310 293 281 277 272 286
42 44 55 80 91 97 107 108 105 100 84 67 52 36 28 18 17 14 14 21 22 25 26 27 24 36 45 53 50 55 69 74 95 37 344 336 321 317 314 310 292 280 279 278 287
46 50 59 78 91 100 104 104 101 93 81 61 45 32 32 33 14 10 17 25 29 28 25 31 38 51 55 56 59 58 62 72 35 345 342 338 329 324 319 299 290 279 276 286 297
48 53 60 73 85 92 96 97 93 87 75 59 40 34 31 32 27 27 33 29 32 38 36 38 42 52 54 47 53 52 42 22 359 330 331 331 328 311 325 302 289 280 285 292 299
50 54 63 72 80 84 88 90 85 80 78 56 44 35 30 23 34 36 35 30 31 38 38 38 36 44 53 50 35 48 24 24 348 330 330 325 317 294 313 306 293 284 288 294 307
49 51 55 62 72 82 85 81 72 63 79 49 36 31 31 35 35 40 35 31 32 38 37 34 34 34 29 26 23 40 19 350 353 337 331 323 291 305 310 316 304 289 288 300 309
42 47 49 55 61 72 81 80 62 52 46 22 16 22 30 35 40 41 31 29 29 28 29 26 28 28 26 17 14 16 2 7 344 336 337 324 292 299 305 311 304 292 290 296 308
29 34 39 43 44 44 45 52 54 28 18 25 335 14 24 24 28 32 24 23 23 20 17 19 20 22 23 7 5 4 349 353 351 334 339 317 286 286 293 292 293 281 280 290 313
19 22 26 29 30 32 28 23 10 11 6 336 5 349 15 23 25 26 18 18 15 10 8 13 14 13 13 9 5 347 347 342 339 316 331 310 260 275 259 248 273 265 271 286 318
11 13 15 17 16 15 13 2 343 305 0 12 10 9 7 19 21 20 18 18 9 5 2 356 11 10 10 2 355 344 334 330 336 316 328 314 297 274 247 229 263 272 265 284 310
359 359 357 1 0 2 358 349 338 262 326 358 356 5 3 356 12 13 14 12 9 11 351 353 358 3 3 356 347 338 325 328 336 322 326 306 301 270 217 223 246 261 251 239 324
351 348 342 341 343 343 342 337 320 277 249 289 343 343 354 332 5 3 3 357 2 1 355 345 352 355 349 346 342 340 332 327 323 324 324 311 301 224 229 225 236 235 209 115 48
347 343 338 331 329 330 332 332 323 302 264 259 311 324 332 342 315 350 352 350 348 337 356 334 338 344 342 343 338 342 335 326 318 319 311 313 290 254 240 224 232 240 239 313 18
344 341 337 334 329 329 329 329 320 315 322 267 288 319 311 334 333 341 341 335 335 334 332 324 317 319 336 341 339 330 334 323 312 306 305 285 274 270 228 223 232 238 245 265 310
340 338 334 331 327 326 326 322 314 294 256 262 297 310 297 320 320 329 335 323 322 325 320 308 309 304 330 335 336 336 340 322 315 308 291 250 277 277 247 234 238 246 251 270 304
337 334 329 327 325 324 324 319 302 236 292 276 297 303 293 306 311 306 325 317 317 326 326 314 304 294 318 331 334 336 347 335 340 338 233 257 284 264 256 223 235 251 261 270 292
331 332 327 323 318 314 315 310 273 280 282 293 299 301 290 296 304 301 312 314 298 320 331 329 325 315 314 322 321 329 359 9 289 283 285 282 244 274 254 233 249 256 255 274 280
321 321 319 315 306 301 299 293 269 295 294 295 299 293 279 283 300 305 307 300 287 312 335 309 299 311 302 304 317 314 311 304 266 274 303 252 272 285 271 249 267 248 248 276 276
311 311 314 311 303 296 292 286 283 289 291 288 283 276 274 294 298 299 309 293 299 298 322 306 300 303 301 312 308 289 297 294 275 309 293 270 272 266 272 279 258 237 267 280 286
304 307 310 307 300 293 288 286 289 287 284 274 270 271 282 288 288 294 284 294 294 295 313 310 289 286 308 310 298 288 275 260 253 241 226 290 269 288 272 271 271 267 278 290 292
304 304 301 299 296 293 290 289 287 282 279 272 272 274 276 282 281 287 285 283 292 296 304 300 284 287 306 293 286 281 271 261 232 241 234 261 274 288 279 272 265 281 292 291 292
294 296 298 295 292 290 286 282 278 277 278 272 268 272 282 285 284 268 281 293 289 293 293 298 271 300 303 286 289 276 273 273 261 263 259 247 267 283 279 266 280 293 294 295 296
294 298 296 298 291 283 279 276 276 277 275 270 274 276 281 284 278 270 277 288 283 288 289 292 277 280 266 286 296 283 280 277 263 254 261 259 278 278 276 283 286 290 294 298 297
293 294 298 287 288 288 284 277 276 282 276 277 281 279 287 280 277 281 291 287 280 284 284 276 277 289 293 294 294 291 286 284 267 274 250 280 279 294 286 284 281 287 292 294 297
288 288 291 289 285 287 286 279 277 278 279 282 281 285 279 274 282 284 282 278 279 282 285 284 276 287 288 296 295 290 289 289 288 284 266 274 282 302 288 287 283 294 297 295 295
282 279 280 280 283 276 282 280 278 278 280 280 281 277 272 282 280 280 280 280 284 285 283 271 272 271 277 290 291 288 297 287 293 290 286 272 294 283 288 282 289 292 289 284 286